This demonstration page uses our WeatherBlox Daily Observations layout. Learn more.

39.29038, -76.61219

Hourly Observations for July 9, 2015

Temp ( °F °C ) Dew Point ( °F °C ) Humidity (%) Winds ( mph kmh ) Pressure ( in mb ) Visibility ( mi km ) Precip ( " mm )
12:54 am 00:54 Mostly Clear 79 26.1 71 21.7 77 77 undefined N/A 29.97 1015 N/A 0 0
1:54 am 01:54 Clear 78 25.6 71 21.7 79 79 undefined N/A 29.95 1014 N/A 0 0
2:54 am 02:54 undefined 77 25 71 21.7 82 82 undefined N/A 29.96 1014 N/A 0 0
3:54 am 03:54 Clear 93 33.9 64 17.8 38 38 undefined N/A 29.49 999 N/A 0 0
4:54 am 04:54 Mostly Cloudy 77 25 70 21.1 79 79 undefined N/A 29.98 1015 N/A 0 0
5:54 am 05:54 Partly Cloudy 77 25 71 21.7 82 82 undefined N/A 30 1016 N/A 0 0
6:54 am 06:54 undefined 78 25.6 70 21.1 76 76 undefined N/A 30 1016 N/A 0 0
7:54 am 07:54 Sunny 79 26.1 79 26.1 100 100 undefined N/A 30.05 1018 N/A 0 0.0254
8:54 am 08:54 Partly Cloudy 81 27.2 70 21.1 69 69 undefined N/A 30.04 1017 N/A 0 0
9:54 am 09:54 undefined 82 27.8 69 20.6 65 65 undefined N/A 30.02 1017 N/A 0 0
10:54 am 10:54 Mostly Cloudy 42 5.5 38 3.3 86 86 undefined N/A 29.94 1014 N/A 0 0
11:54 am 11:54 Partly Cloudy 84 28.9 68 20 59 59 undefined N/A 30.01 1016 N/A 0 0
12:54 pm 12:54 Mostly Sunny 65 18.3 54 12.2 68 68 undefined N/A 29.92 1013 N/A 0 0
1:54 pm 13:54 undefined 87 30.6 69 20.6 55 55 undefined N/A 29.95 1014 N/A 0 0
2:54 pm 14:54 Mostly Cloudy 74 23.3 56 13.3 54 54 undefined N/A 29.92 1013 N/A 0 0
3:54 pm 15:54 Mostly Sunny 89 31.7 70 21.1 53 53 undefined N/A 29.9 1013 N/A 0 0
4:54 pm 16:54 undefined 89 31.7 70 21.1 53 53 undefined N/A 29.87 1012 N/A 0 0
5:54 pm 17:54 Mostly Sunny 89 31.7 73 22.8 59 59 undefined N/A 29.83 1010 N/A 0 0
6:54 pm 18:54 Sunny 86 30 74 23.3 67 67 undefined N/A 29.81 1010 N/A 0 0
7:54 pm 19:54 Cloudy 48 8.8 47 8.5 98 98 undefined N/A 29.85 1011 N/A 0 0
8:54 pm 20:54 Mostly Clear 84 28.9 69 20.6 61 61 undefined N/A 29.86 1011 N/A 0 0
9:54 pm 21:54 Cloudy 76 24.4 68 20 77 77 undefined N/A 29.82 1010 N/A 0 0
10:54 pm 22:54 undefined 83 28.3 69 20.6 63 63 undefined N/A 29.88 1012 N/A 0 0
11:54 pm 23:54 undefined 81 27.2 70 21.1 69 69 undefined N/A 29.89 1012 N/A 0 0

Powered by AerisWeather